This is the latest recevied weather packets stored in our database for station/object DG1ABU-11. If no packets are shown the sender has not sent any weather packets the latest 10 day(s).
| Time | Temp. | Humidity | Pressure | Rain* | Wind** | Luminosity | Snow |
|---|---|---|---|---|---|---|---|
| 1778001458 | 18.33° C | 52% | 1009.2 hPa | - | - | - | - |
| 1778000557 | 18.89° C | 51% | 1009.1 hPa | - | - | - | - |
| 1777999657 | 18.89° C | 51% | 1009.3 hPa | - | - | - | - |
| 1777998757 | 19.44° C | 50% | 1009.2 hPa | - | - | - | - |
| 1777996957 | 19.44° C | 50% | 1009.4 hPa | - | - | - | - |
| 1777996057 | 20° C | 49% | 1009.5 hPa | - | - | - | - |
| 1777995157 | 20° C | 49% | 1009.5 hPa | - | - | - | - |
| 1777994257 | 20° C | 48% | 1009.5 hPa | - | - | - | - |
| 1777993357 | 20° C | 48% | 1009.6 hPa | - | - | - | - |
| 1777992457 | 20° C | 49% | 1009.6 hPa | - | - | - | - |
| 1777991557 | 20° C | 50% | 1009.6 hPa | - | - | - | - |
| 1777990657 | 20° C | 52% | 1009.7 hPa | - | - | - | - |
| 1777989757 | 20° C | 49% | 1009.9 hPa | - | - | - | - |
| 1777988857 | 20° C | 48% | 1009.8 hPa | - | - | - | - |
| 1777987956 | 20° C | 48% | 1010 hPa | - | - | - | - |
| 1777987056 | 20.56° C | 47% | 1010.1 hPa | - | - | - | - |
| 1777986156 | 20.56° C | 47% | 1010.1 hPa | - | - | - | - |
| 1777985256 | 21.11° C | 45% | 1010.2 hPa | - | - | - | - |
| 1777984356 | 21.11° C | 45% | 1010.1 hPa | - | - | - | - |
| 1777983456 | 21.67° C | 45% | 1010.1 hPa | - | - | - | - |
| 1777982556 | 21.67° C | 47% | 1010.1 hPa | - | - | - | - |
| 1777981656 | 21.67° C | 48% | 1010.1 hPa | - | - | - | - |
| 1777980756 | 21.67° C | 49% | 1010.3 hPa | - | - | - | - |
| 1777979856 | 21.67° C | 49% | 1010.3 hPa | - | - | - | - |
| 1777978956 | 21.11° C | 47% | 1010.4 hPa | - | - | - | - |
* Rain since midnight (hover to see other rain measurements)
** Current wind speed in m/s (hover to see current wind gust speed)